Home   Weather   Warsaw   Past weeks
Flag for Poland

Past Weather in Warsaw, Poland — Yesterday and Last 2 Weeks

Now
46 °F

Passing clouds.


Feels Like: 42 °F
Forecast: 49 / 36 °F
Wind: 9 mph from West

Location: Warsaw Okecie Airport

Current Time: Apr 2, 2020 at 6:34:16 pm

Latest Report: Apr 2, 2020 at 6:00 pm


Visibility: N/A

Pressure: 29.80 "Hg

Humidity: 43%

Dew Point: 25 °F

Location of WarsawLocation

Past Weather in Warsaw — Graph

°F

Warsaw Temperature Yesterday

Maximum temperature yesterday: 46 °F (at 2:30 pm)
Minimum temperature yesterday: 25 °F (at 4:30 am)
Average temperature yesterday: 36 °F

High & Low Weather Summary for the Past Weeks

 TemperatureHumidityPressure
High64 °F (Mar 28, 2:00 pm)100% (Mar 30, 9:00 pm)30.72 "Hg (Mar 30, 9:00 pm)
Low23 °F (Mar 24, 4:30 am)16% (Mar 26, 5:30 am)29.80 "Hg (Apr 2, 5:00 pm)
Average40 °F49%30.28 "Hg
* Reported Mar 18 4:00 pm — Apr 2 5:30 pm, Warsaw. Weather by CustomWeather, © 2020

Note: Actual official high and low records may vary slightly from our data, if they occured in-between our weather recording intervals... More about our weather records

Warsaw Weather History for the Previous 24 Hours

Scroll right to see more
 ConditionsComfort  
Time TempWeatherWind HumidityBarometerVisibility
5:30 pm
Thu, Apr 2
48 °FPassing clouds.10 mph40%29.80 "HgN/A
5:00 pm48 °FPassing clouds.12 mph43%29.80 "HgN/A
4:30 pm46 °FPassing clouds.10 mph43%29.83 "HgN/A
4:00 pm45 °FPartly sunny.10 mph49%29.83 "HgN/A
3:30 pm46 °FPartly sunny.12 mph46%29.83 "HgN/A
3:00 pm46 °FPartly sunny.12 mph46%29.83 "HgN/A
2:30 pm46 °FScattered clouds.9 mph43%29.83 "HgN/A
2:00 pm48 °FScattered clouds.13 mph43%29.86 "HgN/A
1:30 pm46 °FScattered clouds.13 mph43%29.86 "HgN/A
1:00 pm46 °FScattered clouds.10 mph50%29.86 "HgN/A
12:30 pm46 °FPassing clouds.10 mph53%29.86 "HgN/A
12:00 pm46 °FPassing clouds.12 mph53%29.86 "HgN/A
11:30 am45 °FPassing clouds.9 mph57%29.86 "HgN/A
11:00 am45 °FPassing clouds.8 mph53%29.86 "HgN/A
10:30 am43 °FPassing clouds.10 mph53%29.86 "HgN/A
10:00 am41 °FPassing clouds.8 mph53%29.86 "HgN/A
9:30 am41 °FScattered clouds.8 mph53%29.86 "HgN/A
9:00 am41 °FPassing clouds.8 mph49%29.86 "HgN/A
8:30 am39 °FPassing clouds.7 mph48%29.86 "HgN/A
8:00 am37 °FPassing clouds.7 mph52%29.86 "HgN/A
7:30 am37 °FSunny.7 mph52%29.86 "Hg10 mi
7:00 am37 °FPassing clouds.6 mph52%29.86 "HgN/A
6:30 am36 °FPassing clouds.6 mph56%29.86 "HgN/A
6:00 am36 °FClear.6 mph56%29.86 "Hg10 mi
5:30 am36 °FPassing clouds.6 mph56%29.86 "HgN/A
5:00 am36 °FPassing clouds.5 mph56%29.86 "HgN/A
4:30 am36 °FPassing clouds.5 mph52%29.86 "HgN/A
4:00 am36 °FClear.6 mph52%29.86 "Hg10 mi
3:30 am36 °FClear.6 mph52%29.89 "Hg10 mi
3:00 am36 °FClear.7 mph48%29.89 "Hg10 mi
2:30 am36 °FClear.8 mph48%29.89 "Hg10 mi
2:00 am37 °FPassing clouds.7 mph45%29.89 "HgN/A
1:30 am37 °FClear.7 mph45%29.92 "Hg10 mi
1:00 am36 °FClear.5 mph52%29.92 "Hg10 mi
12:30 am34 °FPassing clouds.5 mph51%29.92 "HgN/A
12:00 am36 °FClear.5 mph48%29.92 "Hg10 mi
11:30 pm
Wed, Apr 1
36 °FClear.6 mph48%29.95 "Hg10 mi
11:00 pm36 °FClear.6 mph48%29.95 "Hg10 mi
10:30 pm34 °FClear.6 mph51%29.95 "Hg10 mi
10:00 pm36 °FClear.6 mph44%29.95 "Hg10 mi
9:30 pm37 °FClear.5 mph41%29.95 "Hg10 mi
9:00 pm37 °FClear.5 mph41%29.95 "Hg10 mi
8:30 pm39 °FClear.3 mph39%29.98 "Hg10 mi
8:00 pm39 °FPassing clouds.5 mph39%29.98 "HgN/A
7:30 pm41 °FPassing clouds.6 mph39%29.98 "HgN/A
7:00 pm43 °FPassing clouds.9 mph34%29.98 "HgN/A
6:30 pm43 °FPassing clouds.10 mph34%29.98 "HgN/A
6:00 pm45 °FPassing clouds.13 mph31%29.98 "HgN/A
Weather by CustomWeather, © 2020

See weather overview

Advertising